QPF
0.12 0.15 0.12 0.14 0.14 0.16 0.13 0.09 0.09 0.07 0.05 0.04 0.04 0.04 0.03 0.03 0.04 0.04 0.03 0.02 0.02 0.01 0.01 0.01 0.02 0.02 0.02 0.02 0.02 0.01 0.00 0.00 0.00 0.00 0.00 0.00 0.00 0.00 0.00 0.00 0.01 0.01 0.02
0.11 0.10 0.10 0.11 0.13 0.15 0.13 0.10 0.08 0.06 0.05 0.04 0.03 0.02 0.02 0.03 0.03 0.02 0.01 0.01 0.01 0.01 0.01 0.01 0.01 0.01 0.02 0.02 0.02 0.01 0.00 0.00 0.00 0.00 0.00 0.00 0.00 0.00 0.00 0.00 0.00 0.01 0.02
0.08 0.07 0.08 0.09 0.10 0.13 0.10 0.06 0.06 0.06 0.04 0.03 0.03 0.03 0.03 0.02 0.02 0.01 0.01 0.01 0.01 0.01 0.01 0.01 0.01 0.02 0.02 0.02 0.02 0.01 0.01 0.00 0.00 0.00 0.00 0.00 0.00 0.00 0.00 0.00 0.00 0.01 0.02
0.05 0.06 0.07 0.06 0.07 0.10 0.07 0.05 0.03 0.03 0.02 0.02 0.02 0.03 0.03 0.02 0.01 0.01 0.01 0.01 0.01 0.02 0.02 0.01 0.02 0.02 0.01 0.01 0.01 0.01 0.01 0.01 0.00 0.00 0.00 0.00 0.00 0.00 0.00 0.00 0.00 0.00 0.01
0.02 0.03 0.05 0.04 0.05 0.07 0.06 0.05 0.03 0.02 0.01 0.02 0.02 0.03 0.03 0.01 0.01 0.01 0.01 0.01 0.01 0.01 0.01 0.01 0.01 0.02 0.01 0.00 0.00 0.01 0.01 0.00 0.00 0.00 0.00 0.00 0.00 0.00 0.00 0.00 0.00 0.00 0.00
0.01 0.02 0.03 0.02 0.03 0.03 0.03 0.04 0.04 0.03 0.01 0.02 0.02 0.03 0.02 0.01 0.00 0.00 0.00 0.00 0.00 0.00 0.01 0.00 0.00 0.00 0.00 0.00 0.00 0.00 0.00 0.00 0.00 0.00 0.00 0.00 0.00 0.00 0.00 0.00 0.00 0.00 0.00
0.01 0.01 0.01 0.01 0.02 0.01 0.01 0.02 0.02 0.02 0.02 0.02 0.02 0.02 0.02 0.01 0.01 0.00 0.00 0.00 0.00 0.00 0.00 0.00 0.00 0.00 0.00 0.00 0.00 0.00 0.00 0.00 0.00 0.00 0.00 0.00 0.00 0.00 0.00 0.00 0.00 0.00 0.00
0.01 0.01 0.01 0.01 0.01 0.01 0.01 0.01 0.01 0.01 0.02 0.02 0.02 0.02 0.02 0.01 0.00 0.00 0.00 0.00 0.00 0.00 0.00 0.00 0.00 0.00 0.00 0.00 0.00 0.00 0.00 0.00 0.00 0.00 0.00 0.00 0.00 0.00 0.00 0.01 0.01 0.01 0.00
0.01 0.01 0.01 0.01 0.00 0.00 0.00 0.01 0.01 0.01 0.02 0.01 0.01 0.01 0.01 0.00 0.00 0.00 0.00 0.00 0.00 0.00 0.00 0.00 0.00 0.00 0.00 0.00 0.00 0.00 0.00 0.00 0.00 0.00 0.00 0.00 0.00 0.00 0.00 0.00 0.01 0.01 0.01
0.00 0.01 0.01 0.01 0.00 0.00 0.00 0.00 0.01 0.01 0.01 0.00 0.00 0.00 0.00 0.00 0.00 0.00 0.00 0.00 0.00 0.00 0.00 0.00 0.00 0.00 0.00 0.00 0.00 0.00 0.00 0.00 0.00 0.00 0.00 0.00 0.00 0.00 0.00 0.00 0.00 0.01 0.01
0.00 0.00 0.00 0.00 0.00 0.00 0.01 0.00 0.00 0.00 0.00 0.00 0.00 0.00 0.00 0.00 0.00 0.00 0.00 0.00 0.00 0.00 0.00 0.00 0.00 0.00 0.00 0.00 0.00 0.00 0.00 0.00 0.00 0.00 0.00 0.00 0.00 0.00 0.00 0.00 0.00 0.00 0.01
0.00 0.00 0.00 0.00 0.00 0.00 0.00 0.00 0.00 0.00 0.00 0.00 0.00 0.00 0.00 0.00 0.00 0.00 0.00 0.00 0.00 0.00 0.00 0.00 0.00 0.00 0.00 0.00 0.00 0.00 0.00 0.00 0.00 0.00 0.00 0.00 0.00 0.00 0.00 0.00 0.00 0.00 0.01
0.00 0.00 0.00 0.00 0.00 0.00 0.00 0.00 0.00 0.00 0.00 0.00 0.00 0.00 0.00 0.00 0.00 0.00 0.00 0.00 0.00 0.00 0.00 0.00 0.00 0.00 0.00 0.00 0.00 0.00 0.00 0.00 0.00 0.00 0.00 0.00 0.00 0.00 0.00 0.00 0.00 0.00 0.00
0.00 0.00 0.00 0.00 0.00 0.00 0.00 0.00 0.00 0.00 0.00 0.00 0.00 0.00 0.00 0.00 0.00 0.00 0.00 0.00 0.00 0.00 0.00 0.00 0.00 0.00 0.00 0.00 0.00 0.00 0.00 0.00 0.00 0.00 0.00 0.00 0.00 0.00 0.00 0.00 0.00 0.00 0.00
0.00 0.00 0.00 0.00 0.00 0.00 0.00 0.00 0.00 0.00 0.00 0.00 0.00 0.00 0.00 0.00 0.00 0.00 0.00 0.00 0.00 0.00 0.00 0.00 0.00 0.00 0.00 0.00 0.00 0.00 0.00 0.00 0.00 0.00 0.00 0.00 0.00 0.00 0.00 0.00 0.00 0.00 0.00
0.00 0.00 0.00 0.00 0.00 0.00 0.00 0.00 0.00 0.00 0.00 0.00 0.00 0.00 0.00 0.00 0.00 0.00 0.00 0.00 0.00 0.00 0.00 0.00 0.00 0.00 0.00 0.01 0.01 0.01 0.00 0.00 0.00 0.00 0.00 0.00 0.00 0.00 0.00 0.00 0.00 0.00 0.00
0.00 0.00 0.00 0.00 0.00 0.00 0.00 0.00 0.00 0.00 0.00 0.00 0.00 0.00 0.00 0.00 0.00 0.00 0.00 0.00 0.00 0.00 0.00 0.00 0.00 0.00 0.00 0.01 0.00 0.00 0.00 0.00 0.00 0.00 0.00 0.00 0.00 0.00 0.00 0.00 0.00 0.00 0.00
0.00 0.00 0.00 0.00 0.00 0.00 0.00 0.00 0.01 0.01 0.01 0.01 0.01 0.01 0.01 0.01 0.00 0.00 0.00 0.00 0.00 0.00 0.00 0.00 0.00 0.00 0.00 0.00 0.00 0.00 0.00 0.00 0.00 0.00 0.00 0.00 0.00 0.00 0.00 0.01 0.01 0.01 0.01
0.01 0.00 0.00 0.00 0.00 0.00 0.00 0.01 0.01 0.01 0.01 0.02 0.01 0.01 0.01 0.01 0.00 0.00 0.00 0.00 0.00 0.00 0.00 0.00 0.00 0.00 0.00 0.00 0.00 0.00 0.00 0.00 0.00 0.00 0.00 0.00 0.00 0.00 0.00 0.00 0.00 0.01 0.01
0.01 0.01 0.01 0.00 0.00 0.00 0.00 0.01 0.01 0.01 0.01 0.01 0.01 0.01 0.01 0.01 0.01 0.01 0.00 0.00 0.00 0.00 0.00 0.00 0.00 0.00 0.00 0.00 0.00 0.00 0.00 0.00 0.00 0.00 0.00 0.00 0.00 0.00 0.00 0.00 0.01 0.01 0.01
0.01 0.01 0.01 0.01 0.01 0.01 0.01 0.01 0.01 0.01 0.02 0.02 0.02 0.02 0.01 0.01 0.01 0.01 0.00 0.00 0.00 0.00 0.00 0.00 0.00 0.00 0.00 0.00 0.00 0.00 0.00 0.00 0.00 0.00 0.00 0.00 0.00 0.00 0.00 0.00 0.00 0.01 0.01
0.01 0.01 0.01 0.01 0.01 0.01 0.02 0.02 0.01 0.01 0.02 0.02 0.02 0.02 0.01 0.01 0.01 0.01 0.01 0.01 0.01 0.01 0.00 0.00 0.00 0.00 0.00 0.00 0.00 0.00 0.00 0.00 0.00 0.00 0.00 0.00 0.00 0.00 0.00 0.00 0.00 0.00 0.00
0.01 0.01 0.01 0.01 0.01 0.01 0.01 0.01 0.01 0.01 0.02 0.02 0.02 0.02 0.02 0.02 0.02 0.02 0.02 0.02 0.01 0.01 0.00 0.00 0.00 0.01 0.00 0.01 0.00 0.00 0.00 0.00 0.00 0.00 0.00 0.00 0.00 0.00 0.00 0.00 0.00 0.00 0.00
0.00 0.01 0.01 0.01 0.01 0.01 0.01 0.01 0.01 0.02 0.02 0.02 0.03 0.03 0.03 0.03 0.03 0.03 0.02 0.02 0.01 0.01 0.01 0.01 0.01 0.00 0.00 0.01 0.01 0.01 0.01 0.01 0.00 0.01 0.00 0.00 0.00 0.00 0.00 0.00 0.00 0.00 0.00
0.01 0.01 0.01 0.02 0.02 0.02 0.02 0.02 0.01 0.02 0.02 0.02 0.03 0.03 0.03 0.02 0.02 0.02 0.02 0.02 0.02 0.02 0.02 0.01 0.01 0.01 0.01 0.01 0.01 0.01 0.01 0.01 0.02 0.01 0.01 0.01 0.02 0.02 0.01 0.01 0.02 0.02 0.02
0.01 0.01 0.01 0.02 0.02 0.02 0.02 0.02 0.01 0.01 0.01 0.01 0.01 0.01 0.01 0.01 0.01 0.01 0.02 0.02 0.02 0.01 0.01 0.01 0.01 0.01 0.00 0.00 0.00 0.00 0.00 0.00 0.00 0.00 0.00 0.01 0.02 0.02 0.03 0.03 0.03 0.03 0.02
MSLP
1014.17 1014.50 1014.75 1014.94 1015.07 1015.19 1015.31 1015.48 1015.68 1015.92 1016.19 1016.46 1016.72 1016.94 1017.13 1017.29 1017.43 1017.57 1017.72 1017.88 1018.06 1018.26 1018.46 1018.65 1018.85 1019.03 1019.22 1019.41 1019.60 1019.78 1019.96 1020.11 1020.22 1020.27 1020.25 1020.17 1020.03 1019.85 1019.65 1019.46 1019.28 1019.14 1019.03
1013.93 1014.34 1014.67 1014.91 1015.07 1015.20 1015.33 1015.48 1015.68 1015.92 1016.19 1016.47 1016.75 1016.98 1017.18 1017.34 1017.47 1017.59 1017.72 1017.86 1018.02 1018.20 1018.40 1018.59 1018.79 1018.97 1019.14 1019.31 1019.48 1019.65 1019.82 1019.98 1020.11 1020.19 1020.22 1020.18 1020.08 1019.93 1019.73 1019.52 1019.31 1019.11 1018.94
1013.53 1014.02 1014.42 1014.71 1014.92 1015.07 1015.21 1015.36 1015.57 1015.82 1016.12 1016.43 1016.73 1017.00 1017.22 1017.39 1017.52 1017.64 1017.75 1017.87 1018.02 1018.20 1018.38 1018.57 1018.76 1018.93 1019.09 1019.24 1019.39 1019.54 1019.69 1019.85 1019.99 1020.10 1020.17 1020.18 1020.12 1020.00 1019.83 1019.62 1019.39 1019.16 1018.95
1013.03 1013.58 1014.03 1014.38 1014.63 1014.81 1014.97 1015.15 1015.38 1015.66 1015.99 1016.34 1016.68 1016.99 1017.25 1017.45 1017.59 1017.71 1017.82 1017.94 1018.08 1018.24 1018.42 1018.60 1018.78 1018.94 1019.09 1019.22 1019.35 1019.48 1019.62 1019.77 1019.91 1020.04 1020.14 1020.18 1020.17 1020.09 1019.95 1019.76 1019.53 1019.30 1019.07
1012.46 1013.06 1013.57 1013.97 1014.26 1014.49 1014.68 1014.89 1015.14 1015.46 1015.83 1016.22 1016.61 1016.97 1017.27 1017.50 1017.68 1017.81 1017.92 1018.04 1018.17 1018.32 1018.50 1018.67 1018.85 1019.00 1019.14 1019.26 1019.37 1019.49 1019.61 1019.75 1019.89 1020.03 1020.15 1020.22 1020.24 1020.20 1020.09 1019.93 1019.72 1019.50 1019.26
1011.90 1012.53 1013.08 1013.53 1013.88 1014.14 1014.38 1014.62 1014.91 1015.26 1015.66 1016.09 1016.53 1016.93 1017.27 1017.54 1017.75 1017.90 1018.02 1018.14 1018.28 1018.43 1018.59 1018.77 1018.94 1019.09 1019.23 1019.34 1019.45 1019.55 1019.66 1019.79 1019.93 1020.06 1020.19 1020.28 1020.32 1020.31 1020.23 1020.10 1019.91 1019.70 1019.47
1011.37 1012.03 1012.62 1013.12 1013.51 1013.82 1014.09 1014.37 1014.69 1015.06 1015.50 1015.96 1016.43 1016.87 1017.24 1017.55 1017.78 1017.96 1018.10 1018.23 1018.37 1018.52 1018.68 1018.86 1019.03 1019.18 1019.32 1019.43 1019.54 1019.64 1019.74 1019.86 1019.98 1020.11 1020.23 1020.32 1020.38 1020.38 1020.33 1020.21 1020.05 1019.86 1019.64
1010.90 1011.58 1012.20 1012.73 1013.17 1013.52 1013.84 1014.15 1014.49 1014.89 1015.33 1015.82 1016.30 1016.76 1017.17 1017.50 1017.76 1017.96 1018.12 1018.27 1018.41 1018.56 1018.73 1018.91 1019.08 1019.24 1019.38 1019.50 1019.61 1019.70 1019.80 1019.90 1020.01 1020.13 1020.23 1020.32 1020.37 1020.37 1020.33 1020.23 1020.09 1019.91 1019.70
1010.48 1011.16 1011.80 1012.36 1012.84 1013.23 1013.58 1013.92 1014.29 1014.70 1015.16 1015.64 1016.14 1016.60 1017.02 1017.38 1017.66 1017.89 1018.07 1018.23 1018.39 1018.55 1018.73 1018.91 1019.08 1019.24 1019.39 1019.51 1019.62 1019.71 1019.80 1019.89 1019.98 1020.07 1020.16 1020.22 1020.26 1020.26 1020.21 1020.12 1019.99 1019.82 1019.63
1010.08 1010.74 1011.38 1011.96 1012.46 1012.90 1013.28 1013.66 1014.04 1014.47 1014.93 1015.41 1015.90 1016.37 1016.80 1017.17 1017.48 1017.73 1017.94 1018.13 1018.30 1018.48 1018.66 1018.85 1019.02 1019.19 1019.33 1019.46 1019.56 1019.64 1019.72 1019.79 1019.86 1019.93 1019.99 1020.03 1020.05 1020.04 1019.98 1019.90 1019.77 1019.61 1019.42
1009.64 1010.26 1010.89 1011.47 1012.00 1012.46 1012.88 1013.29 1013.70 1014.14 1014.61 1015.09 1015.58 1016.06 1016.49 1016.87 1017.20 1017.48 1017.73 1017.94 1018.15 1018.35 1018.54 1018.73 1018.91 1019.08 1019.22 1019.33 1019.42 1019.50 1019.56 1019.61 1019.65 1019.70 1019.73 1019.75 1019.75 1019.72 1019.66 1019.57 1019.45 1019.30 1019.12
1009.14 1009.71 1010.30 1010.87 1011.40 1011.89 1012.34 1012.78 1013.23 1013.69 1014.18 1014.67 1015.16 1015.64 1016.09 1016.49 1016.85 1017.16 1017.44 1017.70 1017.94 1018.16 1018.38 1018.58 1018.76 1018.92 1019.04 1019.15 1019.22 1019.28 1019.32 1019.35 1019.37 1019.39 1019.40 1019.40 1019.39 1019.35 1019.29 1019.21 1019.09 1018.96 1018.79
1008.59 1009.09 1009.62 1010.15 1010.67 1011.17 1011.65 1012.13 1012.62 1013.12 1013.63 1014.14 1014.65 1015.14 1015.60 1016.02 1016.41 1016.77 1017.09 1017.39 1017.67 1017.93 1018.16 1018.38 1018.56 1018.71 1018.83 1018.91 1018.97 1019.00 1019.01 1019.02 1019.03 1019.03 1019.03 1019.02 1019.00 1018.97 1018.91 1018.84 1018.74 1018.62 1018.48
1008.01 1008.42 1008.88 1009.36 1009.85 1010.35 1010.85 1011.37 1011.90 1012.43 1012.98 1013.52 1014.05 1014.55 1015.04 1015.49 1015.91 1016.30 1016.67 1017.01 1017.34 1017.63 1017.90 1018.12 1018.31 1018.46 1018.56 1018.62 1018.65 1018.66 1018.66 1018.65 1018.64 1018.63 1018.62 1018.62 1018.60 1018.58 1018.54 1018.49 1018.41 1018.31 1018.19
1007.48 1007.78 1008.14 1008.55 1008.99 1009.48 1010.00 1010.54 1011.11 1011.69 1012.27 1012.84 1013.39 1013.92 1014.42 1014.90 1015.35 1015.77 1016.18 1016.57 1016.93 1017.26 1017.55 1017.80 1017.99 1018.13 1018.22 1018.27 1018.28 1018.26 1018.24 1018.22 1018.20 1018.19 1018.18 1018.19 1018.19 1018.19 1018.17 1018.14 1018.09 1018.02 1017.92
1007.04 1007.23 1007.48 1007.80 1008.19 1008.65 1009.17 1009.73 1010.33 1010.94 1011.55 1012.15 1012.72 1013.27 1013.78 1014.27 1014.74 1015.19 1015.62 1016.04 1016.43 1016.79 1017.11 1017.38 1017.58 1017.72 1017.81 1017.84 1017.83 1017.80 1017.76 1017.73 1017.70 1017.69 1017.70 1017.72 1017.74 1017.77 1017.78 1017.77 1017.74 1017.69 1017.61
1006.76 1006.83 1006.97 1007.20 1007.52 1007.94 1008.44 1009.00 1009.61 1010.25 1010.88 1011.49 1012.07 1012.62 1013.14 1013.62 1014.09 1014.55 1014.99 1015.43 1015.85 1016.23 1016.57 1016.86 1017.07 1017.22 1017.30 1017.32 1017.31 1017.26 1017.22 1017.17 1017.15 1017.15 1017.16 1017.20 1017.24 1017.28 1017.31 1017.32 1017.31 1017.27 1017.20
1006.64 1006.61 1006.65 1006.78 1007.03 1007.39 1007.86 1008.42 1009.03 1009.66 1010.30 1010.91 1011.48 1012.01 1012.51 1012.98 1013.43 1013.88 1014.32 1014.76 1015.19 1015.59 1015.94 1016.24 1016.47 1016.63 1016.72 1016.74 1016.72 1016.67 1016.62 1016.57 1016.54 1016.54 1016.56 1016.60 1016.65 1016.70 1016.74 1016.76 1016.75 1016.71 1016.63
1006.68 1006.56 1006.51 1006.57 1006.75 1007.06 1007.48 1008.01 1008.60 1009.22 1009.84 1010.43 1010.98 1011.48 1011.94 1012.38 1012.80 1013.22 1013.64 1014.07 1014.49 1014.89 1015.26 1015.58 1015.82 1015.99 1016.09 1016.12 1016.10 1016.05 1015.99 1015.93 1015.90 1015.88 1015.90 1015.93 1015.98 1016.03 1016.06 1016.07 1016.05 1015.99 1015.89
1006.85 1006.67 1006.56 1006.55 1006.67 1006.92 1007.30 1007.79 1008.34 1008.93 1009.52 1010.07 1010.58 1011.04 1011.46 1011.85 1012.22 1012.60 1012.99 1013.40 1013.81 1014.21 1014.59 1014.91 1015.17 1015.36 1015.47 1015.51 1015.50 1015.44 1015.37 1015.30 1015.24 1015.21 1015.20 1015.21 1015.24 1015.26 1015.28 1015.26 1015.21 1015.12 1014.99
1007.13 1006.91 1006.76 1006.70 1006.77 1006.98 1007.31 1007.75 1008.26 1008.81 1009.35 1009.85 1010.31 1010.72 1011.09 1011.42 1011.75 1012.09 1012.44 1012.82 1013.21 1013.60 1013.98 1014.31 1014.58 1014.79 1014.91 1014.96 1014.94 1014.88 1014.79 1014.69 1014.60 1014.53 1014.49 1014.46 1014.45 1014.43 1014.41 1014.36 1014.28 1014.15 1013.98
1007.47 1007.25 1007.08 1007.00 1007.04 1007.21 1007.50 1007.90 1008.36 1008.85 1009.33 1009.78 1010.19 1010.54 1010.85 1011.14 1011.41 1011.70 1012.02 1012.36 1012.73 1013.11 1013.48 1013.81 1014.09 1014.30 1014.43 1014.48 1014.46 1014.38 1014.26 1014.12 1013.99 1013.87 1013.77 1013.69 1013.62 1013.56 1013.49 1013.40 1013.28 1013.12 1012.92
1007.87 1007.68 1007.51 1007.43 1007.46 1007.60 1007.86 1008.20 1008.61 1009.04 1009.47 1009.86 1010.21 1010.51 1010.76 1011.00 1011.23 1011.48 1011.75 1012.06 1012.40 1012.76 1013.11 1013.44 1013.71 1013.92 1014.04 1014.08 1014.03 1013.93 1013.77 1013.58 1013.39 1013.21 1013.04 1012.89 1012.77 1012.65 1012.54 1012.41 1012.26 1012.07 1011.85
1008.34 1008.18 1008.05 1007.98 1008.00 1008.13 1008.35 1008.65 1009.00 1009.37 1009.74 1010.07 1010.36 1010.60 1010.81 1011.00 1011.19 1011.40 1011.63 1011.91 1012.21 1012.54 1012.87 1013.17 1013.42 1013.61 1013.71 1013.72 1013.64 1013.49 1013.29 1013.04 1012.78 1012.52 1012.28 1012.06 1011.87 1011.70 1011.54 1011.39 1011.22 1011.02 1010.80
1008.86 1008.75 1008.66 1008.62 1008.65 1008.76 1008.95 1009.20 1009.50 1009.81 1010.11 1010.38 1010.61 1010.80 1010.97 1011.11 1011.26 1011.43 1011.62 1011.86 1012.12 1012.41 1012.70 1012.96 1013.17 1013.32 1013.38 1013.35 1013.23 1013.03 1012.76 1012.44 1012.10 1011.77 1011.45 1011.16 1010.91 1010.69 1010.50 1010.32 1010.15 1009.97 1009.77
1009.43 1009.37 1009.32 1009.31 1009.35 1009.45 1009.61 1009.82 1010.06 1010.30 1010.53 1010.74 1010.91 1011.05 1011.17 1011.27 1011.38 1011.50 1011.66 1011.85 1012.06 1012.30 1012.53 1012.74 1012.90 1013.00 1013.01 1012.92 1012.74 1012.48 1012.14 1011.75 1011.34 1010.92 1010.53 1010.17 1009.86 1009.60 1009.39 1009.20 1009.04 1008.88 1008.72
Thickness
5732 5731 5730 5729 5729 5729 5729 5730 5730 5730 5730 5730 5729 5727 5726 5725 5725 5723 5720 5719 5718 5717 5717 5717 5713 5713 5713 5710 5710 5709 5709 5709 5708 5709 5710 5713 5713 5711 5710 5710 5711 5711 5710
5730 5729 5728 5729 5729 5729 5728 5728 5728 5729 5730 5729 5729 5728 5727 5726 5725 5722 5718 5718 5717 5716 5716 5714 5714 5711 5709 5707 5706 5704 5706 5706 5705 5704 5704 5705 5707 5706 5708 5706 5706 5705 5706
5732 5730 5728 5729 5730 5729 5729 5730 5729 5728 5728 5728 5728 5726 5724 5724 5722 5720 5719 5717 5716 5715 5714 5712 5712 5709 5709 5707 5704 5702 5701 5702 5703 5702 5700 5698 5699 5701 5704 5700 5700 5699 5699
5738 5734 5731 5729 5729 5729 5730 5729 5727 5727 5727 5727 5728 5726 5724 5723 5723 5722 5720 5717 5715 5714 5712 5710 5709 5708 5708 5705 5704 5703 5700 5698 5699 5699 5696 5694 5693 5690 5694 5697 5698 5695 5694
5742 5738 5736 5733 5732 5732 5731 5730 5728 5727 5727 5727 5726 5725 5726 5725 5724 5722 5718 5717 5715 5713 5711 5709 5707 5706 5706 5703 5701 5699 5697 5698 5696 5696 5694 5692 5689 5688 5685 5686 5688 5691 5692
5747 5743 5741 5738 5736 5735 5733 5731 5728 5726 5726 5726 5726 5725 5724 5723 5721 5719 5718 5717 5715 5713 5710 5709 5706 5705 5704 5701 5699 5696 5695 5694 5691 5690 5691 5689 5687 5685 5684 5681 5681 5682 5685
5750 5746 5742 5739 5737 5736 5735 5733 5729 5726 5727 5726 5725 5725 5724 5722 5720 5720 5718 5717 5716 5714 5709 5709 5705 5704 5701 5698 5696 5694 5693 5691 5687 5686 5686 5685 5684 5682 5679 5677 5676 5676 5679
5755 5750 5747 5743 5741 5739 5737 5735 5731 5729 5728 5727 5725 5725 5724 5724 5724 5720 5720 5717 5717 5715 5710 5707 5704 5701 5699 5697 5694 5694 5691 5688 5685 5684 5680 5679 5680 5678 5675 5673 5670 5669 5672
5759 5755 5752 5749 5746 5743 5740 5738 5734 5732 5730 5728 5726 5725 5724 5724 5722 5719 5717 5717 5714 5712 5708 5705 5703 5700 5697 5695 5692 5692 5688 5685 5683 5682 5679 5676 5676 5673 5671 5669 5666 5662 5660
5764 5760 5756 5754 5751 5749 5745 5742 5739 5735 5732 5730 5728 5727 5724 5722 5720 5718 5716 5714 5712 5709 5706 5704 5701 5698 5695 5692 5690 5689 5686 5682 5679 5676 5673 5670 5672 5669 5666 5664 5662 5659 5655
5767 5764 5760 5758 5755 5752 5748 5744 5741 5738 5734 5733 5730 5728 5725 5722 5719 5717 5715 5712 5710 5707 5704 5701 5699 5696 5693 5690 5687 5687 5683 5679 5677 5674 5671 5667 5664 5663 5662 5660 5657 5654 5651
5771 5768 5765 5760 5757 5753 5750 5746 5744 5741 5738 5735 5731 5728 5725 5723 5720 5717 5714 5711 5708 5705 5702 5699 5696 5694 5692 5688 5685 5683 5681 5677 5674 5671 5667 5664 5662 5658 5655 5653 5651 5649 5646
5772 5770 5766 5762 5758 5755 5752 5750 5747 5744 5741 5737 5732 5728 5725 5721 5719 5717 5713 5710 5706 5703 5700 5697 5694 5692 5689 5686 5683 5680 5677 5674 5671 5668 5664 5661 5657 5653 5652 5647 5646 5645 5643
5771 5769 5765 5762 5760 5757 5754 5751 5748 5746 5742 5737 5733 5728 5725 5721 5718 5715 5712 5708 5705 5701 5698 5695 5692 5689 5687 5684 5680 5677 5674 5670 5667 5664 5660 5657 5654 5649 5645 5643 5639 5637 5635
5769 5767 5765 5763 5760 5757 5755 5752 5749 5746 5742 5736 5733 5729 5725 5721 5717 5713 5710 5706 5702 5699 5696 5692 5689 5686 5684 5682 5678 5673 5671 5666 5663 5660 5657 5654 5650 5645 5639 5638 5636 5633 5630
5770 5769 5767 5764 5761 5758 5756 5753 5749 5746 5741 5736 5732 5729 5724 5720 5715 5711 5707 5703 5699 5696 5693 5689 5687 5684 5682 5676 5669 5665 5665 5662 5659 5656 5654 5651 5646 5641 5634 5629 5625 5622 5621
5771 5769 5768 5765 5763 5760 5757 5753 5750 5745 5739 5735 5732 5727 5723 5718 5713 5710 5705 5701 5697 5693 5689 5686 5683 5680 5677 5670 5664 5658 5656 5657 5656 5653 5650 5648 5648 5640 5636 5630 5622 5618 5614
5770 5770 5769 5766 5764 5761 5758 5754 5749 5743 5738 5733 5730 5726 5721 5716 5711 5706 5702 5697 5694 5690 5686 5683 5681 5677 5674 5666 5660 5654 5651 5652 5651 5649 5647 5643 5640 5637 5631 5627 5624 5620 5618
5769 5768 5768 5767 5763 5759 5754 5749 5745 5740 5735 5731 5727 5723 5718 5713 5707 5702 5698 5694 5690 5686 5683 5680 5677 5673 5670 5663 5656 5648 5650 5650 5648 5646 5644 5640 5636 5631 5623 5619 5617 5615 5614
5764 5764 5764 5762 5757 5754 5750 5743 5739 5735 5731 5728 5724 5719 5714 5708 5703 5699 5694 5690 5685 5682 5679 5677 5674 5670 5667 5660 5652 5644 5646 5647 5645 5644 5641 5636 5631 5626 5618 5613 5612 5610 5609
5757 5756 5754 5750 5747 5745 5741 5735 5732 5728 5727 5724 5719 5713 5707 5702 5698 5693 5689 5684 5680 5677 5673 5671 5669 5665 5662 5657 5649 5641 5640 5641 5640 5640 5639 5638 5629 5620 5612 5606 5606 5605 5601
5746 5746 5742 5738 5736 5735 5731 5726 5722 5722 5719 5715 5710 5705 5700 5696 5692 5686 5682 5678 5674 5670 5666 5663 5661 5661 5658 5652 5647 5638 5633 5631 5631 5631 5632 5630 5622 5614 5606 5601 5600 5596 5590
5734 5735 5732 5728 5725 5723 5721 5717 5714 5713 5709 5704 5699 5696 5692 5688 5685 5680 5676 5671 5667 5665 5664 5661 5658 5656 5654 5650 5641 5634 5628 5623 5620 5624 5623 5617 5610 5604 5600 5596 5593 5587 5586
5722 5723 5720 5716 5712 5711 5709 5707 5706 5703 5700 5694 5690 5687 5683 5680 5677 5673 5670 5667 5664 5660 5658 5655 5652 5650 5647 5643 5638 5633 5626 5618 5613 5613 5612 5607 5601 5597 5595 5594 5591 5587 5588
5708 5708 5706 5702 5700 5699 5697 5696 5695 5691 5687 5684 5680 5678 5675 5672 5668 5665 5663 5660 5658 5654 5647 5646 5644 5640 5636 5633 5624 5619 5619 5616 5612 5606 5606 5606 5604 5601 5599 5597 5595 5591 5587
5694 5693 5692 5690 5688 5686 5684 5683 5682 5680 5676 5672 5669 5669 5667 5662 5659 5656 5653 5649 5645 5640 5635 5631 5627 5627 5622 5617 5612 5606 5601 5596 5590 5588 5594 5596 5596 5595 5593 5591 5589 5587 5584